Location: Plum
(40.5000°N, 79.7500°W)
Time: 05:50:14
(UTC-05:00)

Daily predictions for brighter satellites

Satellite Brightness Start Highest point End
(mag) Time Altitude Azimuth Time Altitude Azimuth Time Altitude Azimuth
Cosmos 2297 Rocket 4.2 04:05:03 24° E 04:05:03 24° E 04:08:22 10° NE
Cosmos 2227 Rocket 4.0 04:18:47 25° NE 04:18:47 25° NE 04:21:18 10° NE
Cosmos 2333 Rocket 3.6 04:50:14 29° SSE 04:50:14 29° SSE 04:52:53 10° SSE
Cosmos 2219 Rocket 4.1 05:11:11 16° S 05:11:11 16° S 05:12:15 10° S
Cosmos 1743 Rocket 4.4 05:09:30 46° ENE 05:09:58 48° E 05:14:12 10° SSE
COSMO-SKYMED 1 3.1 05:15:52 10° SSE 05:20:06 57° ENE 05:21:11 43° NNE
Cosmos 968 Rocket 4.2 05:21:52 10° S 05:26:58 55° ESE 05:32:07 10° NNE
NOAA 6 3.9 05:21:52 10° NNE 05:27:05 90° E 05:32:17 10° SSW
SeaSat 1 4.5 05:24:10 10° N 05:25:10 15° N 05:25:10 15° N
Cosmos 1816 Rocket 4.4 05:24:25 10° N 05:30:48 86° W 05:37:03 10° S
Cosmos 2151 4.3 05:30:09 10° N 05:34:08 39° ENE 05:38:06 10° SSE
Cosmos 2237 Rocket 2.7 05:36:10 40° SW 05:36:10 40° SW 05:40:38 10° S
USA 229 DEB 3.7 05:33:34 33° NW 05:37:10 82° WSW 05:44:25 10° SSE
USA 229 3.7 05:33:38 32° NW 05:37:16 82° WSW 05:44:30 10° SSE
Cosmos 1500 Rocket 3.8 05:34:37 21° N 05:37:30 71° E 05:41:56 10° SSE
SL-16 R/B 2.1 05:35:44 29° NNW 05:38:45 86° ENE 05:44:25 10° SSE
Tsikada Rocket 4.0 05:34:12 10° NNW 05:40:28 59° W 05:46:38 10° S
Cosmos 2346 Rocket 4.4 05:35:47 10° N 05:41:57 83° E 05:48:02 10° S
Cosmos 2297 Rocket 2.4 05:46:56 43° WNW 05:47:32 44° WNW 05:52:58 10° NNE
SKYMED 3 4.5 05:45:50 10° S 05:50:08 65° WSW 05:51:35 39° NW
Cosmos 220 Rocket 3.9 05:48:09 10° SSW 05:52:34 78° WNW 05:56:59 10° NNE
Cosmos 1340 Rocket 3.9 05:50:08 10° N 05:53:55 43° ENE 05:57:41 10° SSE
Aureole 2 Rocket 3.1 05:57:16 46° W 05:57:35 47° WSW 06:01:35 10° S
Cosmos 540 Rocket 4.0 05:58:35 35° W 05:58:49 35° W 06:03:26 10° SSW
Cosmos 2227 Rocket 3.1 06:00:40 27° NW 06:00:40 27° NW 06:04:58 10° N
Meteor 1-16 Rocket 4.0 05:56:02 10° S 06:01:30 90° WSW 06:06:52 10° N
Cosmos 1271 Rocket 2.9 05:59:09 10° S 06:02:58 71° E 06:06:46 10° NNE
IDEFIX/ARIANE 42P 4.0 05:59:59 10° NNE 06:04:56 40° E 06:09:51 10° SSE
OAO 2 Rocket 4.0 06:04:01 25° WSW 06:06:27 44° S 06:11:08 10° ESE
ISS -3.2 06:06:00 45° NNW 06:06:47 66° NE 06:10:01 10° ESE
SL-14 R/B 3.2 06:02:53 10° N 06:06:57 83° W 06:11:00 10° S
Cosmos 304 Rocket 3.8 06:05:04 23° NNW 06:07:56 58° WSW 06:12:36 10° S
SKYMED 2 4.0 06:04:10 10° SSW 06:08:14 40° W 06:09:51 29° NW
Meteor 1-28 Rocket 3.1 06:04:33 10° S 06:08:17 61° W 06:10:38 21° NNW
Meteor 1-4 Rocket 2.9 06:08:40 10° SSW 06:12:11 42° WNW 06:15:48 10° N
YAOGAN 1 4.4 06:11:24 10° NNE 06:15:21 34° E 06:19:16 10° SSE
Meteor 2-1 Rocket 4.3 06:14:05 10° S 06:19:39 83° E 06:25:24 10° N
Meteor 2-12 Rocket 4.5 06:13:57 10° S 06:20:05 86° E 06:26:16 10° N
CZ-4 R/B 2.1 06:16:17 10° NNE 06:20:16 56° E 06:24:18 10° S
Cosmos 1072 Rocket 4.4 06:14:16 10° S 06:20:29 84° W 06:26:40 10° N
USA 234 3.5 06:14:48 10° ESE 06:21:18 69° NE 06:27:24 12° NW
Cosmos 1538 Rocket 4.0 06:16:20 10° NNW 06:21:42 68° WSW 06:27:00 10° S
ERBS 2.8 06:23:54 19° NNW 06:26:07 58° NE 06:29:29 10° ESE
Aureole 1 4.3 06:23:40 10° SSW 06:26:40 81° ESE 06:30:07 10° NNE
Cosmos 1626 3.1 06:23:50 10° N 06:27:28 49° E 06:31:06 10° SSE
Cosmos 923 Rocket 4.5 06:23:59 10° NNW 06:29:11 63° ENE 06:34:23 10° SSE
NOSS 3-1 (C) 4.1 06:25:00 10° NW 06:32:40 84° WSW 06:41:04 10° SSE
PSLV R/B 4.0 06:29:54 12° SW 06:32:52 51° SSE 06:36:09 10° E
Ariane Rocket 3.3 06:29:13 10° N 06:34:04 45° WNW 06:38:53 10° SW
Cosmos 2221 2.5 06:31:40 10° SSW 06:35:58 63° W 06:40:16 10° N
Coronas F rocket 3.5 06:34:10 10° NNE 06:36:13 24° ENE 06:38:14 10° SE
SL-8 R/B 4.3 06:34:13 16° NW 06:37:57 49° NNE 06:42:35 10° E
TELKOM 3 3.0 06:36:34 17° WSW 06:38:26 60° NNW 06:40:35 10° NE
Cosmos 1680 Rocket 4.1 06:33:16 10° NNW 06:38:32 59° ENE 06:43:46 10° SSE
CSL-04 Debris 4.2 06:34:01 10° N 06:39:26 60° WNW 06:44:47 10° SSW
Cosmos 1603 3.7 06:36:55 10° NNW 06:42:34 78° WSW 06:48:12 10° SSE
Cosmos 389 Rocket 3.4 06:45:08 10° S 06:48:42 55° E 06:52:19 10° NNE
Cosmos 1908 3.8 06:45:49 10° S 06:49:36 62° E 06:53:23 10° NNE
Cosmos 2263 Rocket 3.5 06:45:18 10° S 06:50:39 45° ESE 06:56:04 10° NE
AQUARIUS 4.1 06:48:51 10° N 06:53:22 77° WNW 06:57:51 10° SSW
Cosmos 2058 3.7 06:50:01 10° NNW 06:53:39 31° W 06:57:18 10° SSW
COSMO-SKYMED 1 4.4 06:54:51 10° WSW 06:56:36 12° W 06:58:22 10° WNW
Cosmos 2228 Rocket 3.8 06:52:40 10° S 06:57:02 60° E 07:01:24 10° NNE
PAYLOAD A 4.4 06:56:51 10° N 07:01:34 40° WNW 07:06:05 10° SW
Cosmos 292 Rocket 3.8 06:58:43 10° NNW 07:03:30 71° WSW 07:08:15 10° S
CZ-2C R/B 2.3 06:59:24 10° N 07:03:52 53° WNW 07:08:18 10° SSW
Cosmos 1805 Rocket 4.0 07:03:11 10° NNW 07:07:19 40° W 07:11:25 10° SSW
CSL-04 Rocket 4.5 07:05:32 10° N 07:09:57 27° WNW 07:14:20 10° WSW
MOS 1 4.3 07:06:54 10° N 07:12:36 70° WNW 07:18:15 10° SSW
